Weather History for KFHR - December, 2012

Change the Weather History Date:

Tuesday, December 4, 2012

  Actual Average Record
Temperature  
Mean Temperature 47 °F -  
Max Temperature 53 °F 45 °F 53 °F (2007)
Min Temperature 41 °F 36 °F 21 °F (2013)
Degree Days  
Heating Degree Days 18    
Moisture  
Dew Point 41 °F    
Average Humidity 81    
Maximum Humidity 93    
Minimum Humidity 57    
Precipitation  
Precipitation 0.05 in - - ()
Sea Level Pressure  
Sea Level Pressure 29.62 in    
Wind  
Wind Speed 15 mph (SSW)    
Max Wind Speed 26 mph    
Max Gust Speed 37 mph    
Visibility 10 miles    
Events Rain    
Averages and records for this station are not official NWS values.
T = Trace of Precipitation, MM = Missing Value Source: NWS Daily Summary

Daily Weather History Graph

Daily Weather History Graph

Search for Another Location

Airport or City:

Trip Planner

Search our weather history database for the weather conditions in past years. The results will help you decide how hot, cold, wet, or windy it might be!

Date:

Astronomy

Dec. 04, 2012 Rise Set
Actual Time 7:47 AM PST 4:17 PM PST
Civil Twilight 7:10 AM PST 4:53 PM PST
Nautical Twilight 6:31 AM PST 5:33 PM PST
Astronomical Twilight 5:53 AM PST 6:11 PM PST
Moon 10:30 PM PST 11:26 AM PST
Length of Visible Light 9h 43m
Length of Day
8h 30m
Waning Gibbous, 68% of the Moon is Illuminated
Dec 4
Waning Gibbous
Dec 6
Last Quarter
Dec 13
New
Dec 19
First Quarter
Dec 28
Full

Hourly Weather History & Observations

Time (PST) Temp. Windchill Dew Point Humidity Pressure Visibility Wind Dir Wind Speed Gust Speed Precip Events Conditions
12:53 AM 48.9 °F - 43.0 °F 80% 29.53 in 10.0 mi SE 26.5 mph 36.8 mph N/A   Overcast
1:53 AM 48.0 °F - 43.0 °F 83% 29.49 in 10.0 mi ESE 21.9 mph 32.2 mph 0.00 in Rain Light Rain
3:09 AM 46.4 °F 39.0 °F 44.6 °F 93% 29.44 in 10.0 mi ESE 19.6 mph 28.8 mph N/A   Overcast
3:40 AM 46.4 °F 38.7 °F 44.6 °F 93% 29.43 in 10.0 mi ESE 20.7 mph 32.2 mph N/A   Overcast
3:53 AM 46.9 °F - 44.1 °F 90% 29.43 in 10.0 mi ESE 23.0 mph 33.4 mph N/A   Overcast
4:53 AM 48.0 °F - 44.1 °F 86% 29.46 in 10.0 mi SE 23.0 mph 34.5 mph N/A   Overcast
5:53 AM 48.0 °F - 45.0 °F 89% 29.48 in 10.0 mi SSE 21.9 mph 31.1 mph N/A   Mostly Cloudy
6:09 AM 48.2 °F - 44.6 °F 87% 29.49 in 10.0 mi SSE 20.7 mph 33.4 mph N/A   Scattered Clouds
6:53 AM 48.0 °F - 44.1 °F 86% 29.55 in 10.0 mi SSE 13.8 mph 26.5 mph N/A   Mostly Cloudy
7:20 AM 48.2 °F - 44.6 °F 87% 29.55 in 10.0 mi SSE 12.7 mph - N/A   Overcast
7:53 AM 48.9 °F - 43.0 °F 80% 29.57 in 10.0 mi Variable 6.9 mph - N/A   Mostly Cloudy
8:01 AM 50.0 °F - 42.8 °F 76% 29.57 in 10.0 mi WSW 10.4 mph 21.9 mph N/A   Scattered Clouds
8:53 AM 51.1 °F - 39.0 °F 63% 29.61 in 10.0 mi WSW 8.1 mph 21.9 mph N/A   Scattered Clouds
9:53 AM 51.1 °F - 39.0 °F 63% 29.65 in 10.0 mi WSW 9.2 mph 23.0 mph N/A   Clear
10:53 AM 53.1 °F - 39.0 °F 59% 29.69 in 10.0 mi SW 9.2 mph 23.0 mph N/A   Clear
11:53 AM 53.1 °F - 37.9 °F 57% 29.70 in 10.0 mi WSW 9.2 mph 17.3 mph N/A   Clear
12:53 PM 51.1 °F - 39.0 °F 63% 29.70 in 10.0 mi WSW 8.1 mph - N/A   Overcast
1:53 PM 51.1 °F - 39.0 °F 63% 29.69 in 10.0 mi Variable 4.6 mph - N/A   Mostly Cloudy
2:53 PM 48.9 °F - 39.9 °F 71% 29.70 in 10.0 mi WSW 3.5 mph - 0.00 in Rain Light Rain
3:53 PM 46.9 °F - 39.9 °F 77% 29.69 in 10.0 mi North 3.5 mph - 0.00 in   Overcast
4:53 PM 45.0 °F - 41.0 °F 86% 29.69 in 10.0 mi Calm Calm - N/A   Overcast
5:53 PM 42.1 °F - 39.9 °F 92% 29.67 in 10.0 mi Calm Calm - N/A   Mostly Cloudy
6:53 PM 44.1 °F 42.5 °F 42.1 °F 93% 29.68 in 10.0 mi South 3.5 mph - 0.00 in Rain Light Rain
7:53 PM 43.0 °F 41.3 °F 41.0 °F 93% 29.66 in 10.0 mi West 3.5 mph - 0.00 in   Overcast
8:31 PM 44.6 °F 38.4 °F 42.8 °F 93% 29.69 in 6.0 mi SW 12.7 mph 20.7 mph 0.01 in Rain Light Rain
8:53 PM 43.0 °F 41.3 °F 41.0 °F 93% 29.69 in 10.0 mi SW 3.5 mph - 0.02 in Rain Light Rain
9:53 PM 43.0 °F 38.2 °F 39.0 °F 86% 29.73 in 10.0 mi SW 8.1 mph 17.3 mph 0.02 in Rain Light Rain
10:01 PM 42.8 °F 38.6 °F 39.2 °F 87% 29.72 in 10.0 mi SSW 6.9 mph - 0.00 in   Mostly Cloudy
10:08 PM 42.8 °F 39.3 °F 39.2 °F 87% 29.73 in 10.0 mi SW 5.8 mph - 0.00 in   Scattered Clouds
10:39 PM 42.8 °F 37.0 °F 37.4 °F 81% 29.77 in 6.0 mi SW 10.4 mph 23.0 mph 0.01 in Rain Light Rain
10:53 PM 41.0 °F 37.1 °F 37.9 °F 89% 29.76 in 10.0 mi Variable 5.8 mph - 0.01 in Rain Light Rain
11:53 PM 44.1 °F 39.0 °F 36.0 °F 73% 29.79 in 10.0 mi SW 9.2 mph 27.6 mph N/A   Scattered Clouds